| time (UTC) | temp F | wind direction | speed MPH | gust MPH | rain 1hr in | rain 24hr in | rain mn in | humidity % | barometer mb |
| 20260502152217 | 43 | 286 | 2.0 | 4.0 | 0.00 | 0.00 | 0.00 | 61 | 1017.3 |
| 20260502151715 | 42 | 295 | 3.0 | 7.0 | 0.00 | 0.00 | 0.00 | 61 | 1017.3 |
| 20260502151212 | 43 | 306 | 5.0 | 6.0 | 0.00 | 0.00 | 0.00 | 63 | 1017.3 |
| 20260502150709 | 42 | 233 | 2.0 | 4.0 | 0.00 | 0.00 | 0.00 | 63 | 1017.1 |
| 20260502150205 | 42 | 233 | 3.0 | 3.0 | 0.00 | 0.00 | 0.00 | 61 | 1017.1 |
| 20260502140129 | 39 | 267 | 3.0 | 9.0 | 0.00 | 0.00 | 0.00 | 75 | 1016.9 |
| 20260502123410 | 36 | 283 | 4.0 | 7.0 | 0.00 | 0.00 | 0.00 | 88 | 1016.7 |
| 20260502122908 | 36 | 263 | 4.0 | 4.0 | 0.00 | 0.00 | 0.00 | 88 | 1017.0 |
| 20260502122404 | 37 | 282 | 3.0 | 4.0 | 0.00 | 0.00 | 0.00 | 87 | 1016.9 |
| 20260502121902 | 36 | 270 | 2.0 | 4.0 | 0.00 | 0.00 | 0.00 | 88 | 1016.8 |
| 20260502121359 | 36 | 286 | 5.0 | 8.0 | 0.00 | 0.00 | 0.00 | 88 | 1016.9 |
| 20260502120856 | 35 | 313 | 4.0 | 6.0 | 0.00 | 0.00 | 0.00 | 89 | 1017.1 |
| 20260502120352 | 35 | 296 | 5.0 | 7.0 | 0.00 | 0.00 | 0.00 | 90 | 1017.1 |
| 20260502115850 | 35 | 276 | 3.0 | 4.0 | 0.00 | 0.00 | 0.00 | 91 | 1017.0 |
| 20260502115347 | 35 | 285 | 3.0 | 3.0 | 0.00 | 0.00 | 0.00 | 91 | 1016.9 |
| 20260502114843 | 34 | 291 | 3.0 | 4.0 | 0.00 | 0.00 | 0.00 | 91 | 1017.0 |
| 20260502114340 | 34 | 299 | 2.0 | 3.0 | 0.00 | 0.00 | 0.00 | 91 | 1016.8 |
| 20260502113837 | 34 | 300 | 2.0 | 6.0 | 0.00 | 0.00 | 0.00 | 92 | 1016.9 |
| 20260502113334 | 34 | 288 | 2.0 | 3.0 | 0.00 | 0.00 | 0.00 | 92 | 1017.0 |
| 20260502112833 | 34 | 298 | 2.0 | 3.0 | 0.00 | 0.00 | 0.00 | 93 | 1017.0 |
| 20260502112330 | 33 | 304 | 2.0 | 4.0 | 0.00 | 0.00 | 0.00 | 93 | 1017.1 |
| 20260502111827 | 33 | 279 | 1.0 | 2.0 | 0.00 | 0.00 | 0.00 | 93 | 1017.2 |
| 20260502111324 | 33 | 273 | 1.0 | 2.0 | 0.00 | 0.00 | 0.00 | 93 | 1017.2 |
| 20260502110822 | 33 | 276 | 2.0 | 2.0 | 0.00 | 0.00 | 0.00 | 93 | 1017.3 |
| 20260502110320 | 32 | 277 | 1.0 | 2.0 | 0.00 | 0.00 | 0.00 | 93 | 1017.2 |
| 20260502105817 | 32 | 264 | 1.0 | 2.0 | 0.00 | 0.00 | 0.00 | 93 | 1017.0 |
| 20260502105314 | 32 | 270 | 2.0 | 2.0 | 0.00 | 0.00 | 0.00 | 93 | 1017.1 |
| 20260502104812 | 32 | 270 | 1.0 | 1.0 | 0.00 | 0.00 | 0.00 | 93 | 1017.2 |
| 20260502104308 | 32 | 270 | 1.0 | 2.0 | 0.00 | 0.00 | 0.00 | 93 | 1017.2 |
| 20260502103806 | 31 | 277 | 1.0 | 2.0 | 0.00 | 0.00 | 0.00 | 92 | 1017.1 |
| 20260502103303 | 32 | 278 | 1.0 | 1.0 | 0.00 | 0.00 | 0.00 | 92 | 1017.2 |
| 20260502102800 | 32 | 277 | 1.0 | 1.0 | 0.00 | 0.00 | 0.00 | 92 | 1017.4 |
| 20260502102256 | 32 | 276 | 1.0 | 1.0 | 0.00 | 0.00 | 0.00 | 92 | 1017.3 |
| 20260502101755 | 32 | 276 | 1.0 | 1.0 | 0.00 | 0.00 | 0.00 | 92 | 1017.3 |
| 20260502101252 | 32 | 276 | 1.0 | 2.0 | 0.00 | 0.00 | 0.00 | 91 | 1017.1 |
| 20260502100750 | 32 | 278 | 1.0 | 1.0 | 0.00 | 0.00 | 0.00 | 92 | 1017.4 |
| 20260502100249 | 32 | 278 | 0.0 | 1.0 | 0.00 | 0.00 | 0.00 | 91 | 1017.4 |
| 20260502091223 | 32 | 303 | 0.0 | 1.0 | 0.00 | 0.00 | 0.00 | 90 | 1017.1 |
| 20260502090720 | 33 | 303 | 0.0 | 2.0 | 0.00 | 0.00 | 0.00 | 90 | 1017.2 |
| 20260502090217 | 32 | 276 | 0.0 | 2.0 | 0.00 | 0.00 | 0.00 | 90 | 1017.1 |
| 20260502071119 | 35 | 283 | 0.0 | 2.0 | 0.00 | 0.00 | 0.00 | 90 | 1016.8 |
| 20260502070616 | 35 | 277 | 0.0 | 1.0 | 0.00 | 0.00 | 0.00 | 90 | 1016.8 |
| 20260502070114 | 35 | 300 | 0.0 | 3.0 | 0.00 | 0.00 | 0.00 | 90 | 1017.1 |
| 20260502065612 | 35 | 307 | 2.0 | 4.0 | 0.00 | 0.00 | 0.00 | 90 | 1017.1 |
| 20260502065109 | 36 | 276 | 0.0 | 2.0 | 0.00 | 0.00 | 0.00 | 90 | 1016.7 |
| 20260502064608 | 36 | 276 | 0.0 | 0.0 | 0.00 | 0.00 | 0.00 | 90 | 1016.9 |
| 20260502064105 | 36 | 276 | 1.0 | 2.0 | 0.00 | 0.00 | 0.00 | 89 | 1017.0 |
| 20260502063603 | 36 | 271 | 0.0 | 2.0 | 0.00 | 0.00 | 0.00 | 89 | 1017.0 |
| 20260502063100 | 36 | 263 | 0.0 | 1.0 | 0.00 | 0.00 | 0.00 | 89 | 1016.7 |
| 20260502062557 | 37 | 59 | 0.0 | 0.0 | 0.00 | 0.00 | 0.00 | 90 | 1016.9 |
| 20260502062055 | 37 | 291 | 0.0 | 2.0 | 0.00 | 0.00 | 0.00 | 90 | 1016.9 |
| 20260502061553 | 37 | 298 | 0.0 | 0.0 | 0.00 | 0.00 | 0.00 | 90 | 1017.0 |
| 20260502061050 | 37 | 298 | 0.0 | 1.0 | 0.00 | 0.00 | 0.00 | 90 | 1016.9 |
| 20260502060545 | 37 | 260 | 1.0 | 3.0 | 0.00 | 0.00 | 0.00 | 89 | 1016.9 |
| 20260502060042 | 37 | 259 | 1.0 | 2.0 | 0.00 | 0.00 | 0.00 | 89 | 1016.9 |
| 20260502055539 | 37 | 272 | 1.0 | 2.0 | 0.00 | 0.00 | 0.00 | 90 | 1016.9 |
| 20260502055038 | 37 | 281 | 1.0 | 3.0 | 0.00 | 0.00 | 0.00 | 89 | 1017.3 |
| 20260502054536 | 37 | 290 | 2.0 | 3.0 | 0.00 | 0.00 | 0.00 | 89 | 1017.1 |
| 20260502054033 | 37 | 270 | 1.0 | 3.0 | 0.00 | 0.00 | 0.00 | 90 | 1017.1 |
| 20260502053530 | 37 | 280 | 5.0 | 6.0 | 0.00 | 0.00 | 0.00 | 89 | 1017.4 |
| 20260502053028 | 37 | 278 | 2.0 | 3.0 | 0.00 | 0.00 | 0.00 | 89 | 1017.1 |
| 20260502052526 | 37 | 287 | 2.0 | 2.0 | 0.00 | 0.00 | 0.00 | 89 | 1017.3 |
| 20260502052024 | 37 | 291 | 0.0 | 3.0 | 0.00 | 0.00 | 0.00 | 89 | 1017.1 |
| 20260502051522 | 37 | 253 | 1.0 | 2.0 | 0.00 | 0.00 | 0.00 | 89 | 1017.2 |
| 20260502051019 | 37 | 305 | 1.0 | 3.0 | 0.00 | 0.00 | 0.00 | 89 | 1017.2 |
| 20260502050515 | 37 | 299 | 1.0 | 3.0 | 0.00 | 0.00 | 0.00 | 88 | 1017.3 |
| 20260502050012 | 37 | 299 | 2.0 | 3.0 | 0.00 | 0.00 | 0.00 | 88 | 1017.0 |
| 20260502045509 | 38 | 292 | 1.0 | 3.0 | 0.00 | 0.00 | 0.00 | 88 | 1017.0 |
| 20260502045006 | 37 | 14 | 1.0 | 6.0 | 0.00 | 0.00 | 0.00 | 88 | 1017.2 |
| 20260502044502 | 38 | 311 | 1.0 | 3.0 | 0.00 | 0.00 | 0.00 | 88 | 1016.9 |
| 20260502043959 | 38 | 279 | 0.0 | 2.0 | 0.00 | 0.00 | 0.00 | 89 | 1017.1 |
| 20260502043456 | 38 | 273 | 4.0 | 4.0 | 0.00 | 0.00 | 0.00 | 89 | 1016.9 |
| 20260502042955 | 38 | 289 | 1.0 | 1.0 | 0.00 | 0.00 | 0.00 | 90 | 1016.9 |
| 20260502042453 | 38 | 287 | 2.0 | 2.0 | 0.00 | 0.00 | 0.00 | 90 | 1017.0 |
| 20260502041950 | 39 | 267 | 2.0 | 4.0 | 0.00 | 0.00 | 0.00 | 90 | 1017.0 |
| 20260502041448 | 39 | 264 | 2.0 | 3.0 | 0.00 | 0.00 | 0.00 | 90 | 1017.0 |
| 20260502040944 | 39 | 131 | 0.0 | 1.0 | 0.00 | 0.00 | 0.00 | 90 | 1016.9 |
| 20260502040441 | 39 | 255 | 1.0 | 2.0 | 0.00 | 0.00 | 0.00 | 90 | 1016.9 |
| 20260502035938 | 39 | 335 | 0.0 | 1.0 | 0.00 | 0.02 | 0.02 | 90 | 1017.2 |
| 20260502035434 | 40 | 330 | 1.0 | 2.0 | 0.00 | 0.02 | 0.02 | 90 | 1016.9 |
| 20260502034932 | 40 | 271 | 0.0 | 1.0 | 0.00 | 0.02 | 0.02 | 90 | 1016.7 |
| 20260502034430 | 40 | 118 | 1.0 | 2.0 | 0.00 | 0.02 | 0.02 | 90 | 1016.5 |
| 20260502033928 | 40 | 351 | 1.0 | 2.0 | 0.00 | 0.02 | 0.02 | 90 | 1016.5 |
| 20260502033425 | 40 | 263 | 1.0 | 2.0 | 0.00 | 0.02 | 0.02 | 90 | 1017.0 |
| 20260502032922 | 40 | 280 | 2.0 | 2.0 | 0.00 | 0.02 | 0.02 | 90 | 1016.8 |
| 20260502032419 | 40 | 269 | 2.0 | 4.0 | 0.00 | 0.02 | 0.02 | 90 | 1016.8 |
| 20260502031916 | 40 | 289 | 3.0 | 4.0 | 0.00 | 0.02 | 0.02 | 91 | 1016.6 |
| 20260502031414 | 41 | 273 | 2.0 | 3.0 | 0.00 | 0.02 | 0.02 | 91 | 1016.7 |
| 20260502030912 | 41 | 261 | 2.0 | 2.0 | 0.00 | 0.02 | 0.02 | 91 | 1016.6 |
| 20260502030410 | 41 | 278 | 2.0 | 2.0 | 0.00 | 0.02 | 0.02 | 91 | 1016.5 |
| 20260502025908 | 41 | 255 | 3.0 | 4.0 | 0.00 | 0.02 | 0.02 | 90 | 1016.1 |
| 20260502025404 | 41 | 291 | 5.0 | 8.0 | 0.00 | 0.02 | 0.02 | 90 | 1016.2 |
| 20260502024902 | 41 | 256 | 5.0 | 6.0 | 0.00 | 0.02 | 0.02 | 90 | 1016.1 |
| 20260502024400 | 41 | 270 | 4.0 | 6.0 | 0.00 | 0.02 | 0.02 | 90 | 1016.4 |
| 20260502023858 | 41 | 249 | 3.0 | 3.0 | 0.00 | 0.02 | 0.02 | 90 | 1016.4 |
| 20260502023355 | 41 | 274 | 4.0 | 4.0 | 0.00 | 0.02 | 0.02 | 90 | 1016.2 |
| 20260501222217 | 53 | 253 | 5.0 | 6.0 | 0.00 | 0.01 | 0.01 | 45 | 1014.1 |
| 20260501221713 | 53 | 253 | 5.0 | 6.0 | 0.00 | 0.01 | 0.01 | 45 | 1014.1 |
| 20260501221211 | 54 | 260 | 2.0 | 4.0 | 0.00 | 0.01 | 0.01 | 44 | 1013.5 |
| 20260501220708 | 55 | 294 | 3.0 | 4.0 | 0.00 | 0.01 | 0.01 | 44 | 1013.9 |
| 20260501220206 | 55 | 250 | 4.0 | 7.0 | 0.00 | 0.01 | 0.01 | 42 | 1014.0 |
| 20260501215702 | 55 | 277 | 6.0 | 8.0 | 0.00 | 0.01 | 0.01 | 40 | 1013.6 |
| 20260501215157 | 55 | 277 | 8.0 | 9.0 | 0.00 | 0.01 | 0.01 | 40 | 1013.6 |
| 20260501214653 | 56 | 263 | 6.0 | 8.0 | 0.00 | 0.01 | 0.01 | 39 | 1013.6 |
| 20260501214148 | 56 | 241 | 6.0 | 7.0 | 0.00 | 0.01 | 0.01 | 40 | 1013.4 |
| 20260501213646 | 56 | 293 | 4.0 | 9.0 | 0.00 | 0.01 | 0.01 | 40 | 1013.4 |
| 20260501213141 | 56 | 234 | 4.0 | 6.0 | 0.00 | 0.01 | 0.01 | 40 | 1013.4 |
| 20260501212638 | 55 | 262 | 6.0 | 8.0 | 0.00 | 0.01 | 0.01 | 38 | 1013.5 |
| 20260501212135 | 56 | 282 | 6.0 | 8.0 | 0.00 | 0.01 | 0.01 | 39 | 1013.4 |
| 20260501211632 | 58 | 278 | 6.0 | 11.0 | 0.00 | 0.01 | 0.01 | 39 | 1013.6 |
| 20260501211129 | 57 | 280 | 5.0 | 11.0 | 0.00 | 0.01 | 0.01 | 39 | 1013.3 |
| 20260501210626 | 59 | 271 | 7.0 | 9.0 | 0.00 | 0.01 | 0.01 | 41 | 1013.3 |
| 20260501210122 | 57 | 269 | 3.0 | 6.0 | 0.00 | 0.01 | 0.01 | 40 | 1013.1 |
| 20260501205619 | 59 | 277 | 6.0 | 10.0 | 0.00 | 0.01 | 0.01 | 42 | 1013.2 |
| 20260501205117 | 58 | 259 | 3.0 | 6.0 | 0.00 | 0.01 | 0.01 | 41 | 1013.0 |
| 20260501204613 | 59 | 291 | 4.0 | 9.0 | 0.00 | 0.01 | 0.01 | 42 | 1013.0 |
| 20260501204109 | 59 | 304 | 2.0 | 7.0 | 0.00 | 0.01 | 0.01 | 43 | 1013.2 |
| 20260501203606 | 59 | 297 | 2.0 | 7.0 | 0.00 | 0.01 | 0.01 | 41 | 1013.0 |
| 20260501203103 | 57 | 271 | 8.0 | 10.0 | 0.00 | 0.01 | 0.01 | 41 | 1013.1 |
| 20260501202600 | 58 | 287 | 5.0 | 9.0 | 0.00 | 0.01 | 0.01 | 43 | 1013.4 |
| 20260501202057 | 57 | 289 | 4.0 | 7.0 | 0.00 | 0.01 | 0.01 | 42 | 1013.0 |
| 20260501201554 | 56 | 278 | 6.0 | 7.0 | 0.00 | 0.01 | 0.01 | 42 | 1013.4 |
| 20260501201050 | 57 | 288 | 6.0 | 8.0 | 0.00 | 0.01 | 0.01 | 41 | 1013.2 |
| 20260501200547 | 57 | 297 | 6.0 | 9.0 | 0.00 | 0.01 | 0.01 | 42 | 1013.2 |
| 20260501200045 | 56 | 260 | 7.0 | 8.0 | 0.00 | 0.01 | 0.01 | 41 | 1013.2 |
| 20260501195542 | 55 | 236 | 4.0 | 6.0 | 0.00 | 0.01 | 0.01 | 43 | 1013.3 |
| 20260501195037 | 55 | 283 | 6.0 | 8.0 | 0.00 | 0.01 | 0.01 | 42 | 1013.4 |
| 20260501194533 | 55 | 271 | 9.0 | 10.0 | 0.00 | 0.01 | 0.01 | 42 | 1013.6 |
| 20260501194029 | 55 | 273 | 5.0 | 6.0 | 0.00 | 0.01 | 0.01 | 42 | 1013.2 |
| 20260501193527 | 55 | 232 | 3.0 | 4.0 | 0.00 | 0.01 | 0.01 | 45 | 1013.4 |
| 20260501193025 | 56 | 235 | 3.0 | 4.0 | 0.00 | 0.01 | 0.01 | 43 | 1013.3 |
| 20260501192521 | 55 | 237 | 5.0 | 7.0 | 0.00 | 0.01 | 0.01 | 45 | 1013.3 |
| 20260501192020 | 54 | 247 | 0.0 | 2.0 | 0.00 | 0.01 | 0.01 | 49 | 1013.5 |
| 20260501191516 | 53 | 224 | 1.0 | 3.0 | 0.00 | 0.01 | 0.01 | 50 | 1013.8 |
| 20260501191014 | 53 | 184 | 1.0 | 2.0 | 0.00 | 0.01 | 0.01 | 49 | 1013.5 |
| 20260501190509 | 53 | 234 | 3.0 | 4.0 | 0.00 | 0.01 | 0.01 | 48 | 1013.8 |
| 20260501190005 | 53 | 228 | 2.0 | 3.0 | 0.00 | 0.01 | 0.01 | 48 | 1013.8 |
| 20260501185501 | 53 | 244 | 0.0 | 0.0 | 0.00 | 0.01 | 0.01 | 53 | 1013.6 |
| 20260501184957 | 53 | 233 | 2.0 | 3.0 | 0.00 | 0.01 | 0.01 | 48 | 1014.1 |
| 20260501184453 | 53 | 260 | 2.0 | 4.0 | 0.00 | 0.01 | 0.01 | 51 | 1013.8 |
| 20260501183948 | 53 | 227 | 0.0 | 3.0 | 0.00 | 0.01 | 0.01 | 51 | 1013.9 |
| 20260501183445 | 53 | 242 | 0.0 | 2.0 | 0.00 | 0.01 | 0.01 | 53 | 1014.2 |
| 20260501182942 | 53 | 132 | 0.0 | 0.0 | 0.00 | 0.01 | 0.01 | 48 | 1014.3 |
| 20260501182439 | 53 | 226 | 2.0 | 3.0 | 0.00 | 0.01 | 0.01 | 50 | 1014.3 |
| 20260501181935 | 53 | 191 | 1.0 | 3.0 | 0.00 | 0.01 | 0.01 | 49 | 1014.5 |
| 20260501181433 | 53 | 215 | 1.0 | 2.0 | 0.00 | 0.01 | 0.01 | 51 | 1014.1 |
| 20260501180930 | 53 | 223 | 1.0 | 4.0 | 0.00 | 0.01 | 0.01 | 51 | 1014.4 |
| 20260501180427 | 53 | 99 | 4.0 | 6.0 | 0.00 | 0.01 | 0.01 | 46 | 1014.5 |
| 20260501175923 | 54 | 237 | 0.0 | 3.0 | 0.00 | 0.01 | 0.01 | 47 | 1014.5 |
| 20260501175420 | 53 | 173 | 1.0 | 3.0 | 0.00 | 0.01 | 0.01 | 47 | 1014.8 |
| 20260501174917 | 54 | 229 | 1.0 | 3.0 | 0.00 | 0.01 | 0.01 | 45 | 1014.5 |
| 20260501174415 | 53 | 234 | 2.0 | 4.0 | 0.00 | 0.01 | 0.01 | 45 | 1014.7 |
| 20260501173912 | 53 | 117 | 3.0 | 6.0 | 0.00 | 0.01 | 0.01 | 48 | 1014.6 |
| 20260501173410 | 53 | 122 | 1.0 | 9.0 | 0.00 | 0.01 | 0.01 | 49 | 1014.7 |
| 20260501172905 | 53 | 92 | 1.0 | 4.0 | 0.00 | 0.01 | 0.01 | 48 | 1014.7 |
| 20260501172400 | 53 | 219 | 2.0 | 4.0 | 0.00 | 0.01 | 0.01 | 50 | 1014.9 |
| 20260501171856 | 53 | 123 | 2.0 | 3.0 | 0.00 | 0.01 | 0.01 | 50 | 1014.8 |
| 20260501171353 | 53 | 155 | 4.0 | 4.0 | 0.00 | 0.01 | 0.01 | 49 | 1015.1 |
| 20260501170849 | 53 | 97 | 4.0 | 6.0 | 0.00 | 0.01 | 0.01 | 47 | 1015.2 |
| 20260501170346 | 54 | 151 | 2.0 | 4.0 | 0.00 | 0.01 | 0.01 | 54 | 1015.3 |
| 20260501165844 | 53 | 237 | 2.0 | 3.0 | 0.00 | 0.01 | 0.01 | 54 | 1015.3 |
| 20260501165342 | 53 | 229 | 1.0 | 3.0 | 0.00 | 0.01 | 0.01 | 50 | 1015.2 |
| 20260501164839 | 53 | 102 | 4.0 | 9.0 | 0.00 | 0.01 | 0.01 | 54 | 1015.5 |
| 20260501164337 | 52 | 141 | 2.0 | 4.0 | 0.00 | 0.01 | 0.01 | 52 | 1015.4 |
| 20260501163832 | 52 | 246 | 1.0 | 6.0 | 0.00 | 0.01 | 0.01 | 54 | 1015.5 |
| 20260501163329 | 52 | 118 | 3.0 | 6.0 | 0.00 | 0.01 | 0.01 | 57 | 1015.6 |
| 20260501162826 | 52 | 135 | 2.0 | 3.0 | 0.00 | 0.01 | 0.01 | 53 | 1015.7 |
| 20260501162323 | 52 | 216 | 2.0 | 4.0 | 0.00 | 0.01 | 0.01 | 55 | 1015.7 |
| 20260501161820 | 51 | 68 | 4.0 | 6.0 | 0.00 | 0.01 | 0.01 | 57 | 1015.7 |
| 20260501161317 | 51 | 166 | 1.0 | 3.0 | 0.00 | 0.01 | 0.01 | 52 | 1015.6 |
| 20260501160813 | 51 | 215 | 1.0 | 4.0 | 0.00 | 0.01 | 0.01 | 53 | 1016.0 |
| 20260501160310 | 51 | 151 | 3.0 | 6.0 | 0.00 | 0.01 | 0.01 | 48 | 1016.0 |
| 20260501155808 | 51 | 201 | 2.0 | 4.0 | 0.00 | 0.01 | 0.01 | 49 | 1016.0 |
| 20260501155306 | 52 | 183 | 1.0 | 4.0 | 0.00 | 0.01 | 0.01 | 49 | 1015.9 |
| 20260501154801 | 53 | 244 | 0.0 | 2.0 | 0.00 | 0.01 | 0.01 | 52 | 1016.0 |
| 20260501154258 | 52 | 149 | 2.0 | 3.0 | 0.00 | 0.01 | 0.01 | 52 | 1016.0 |
| 20260501153755 | 53 | 184 | 1.0 | 2.0 | 0.00 | 0.01 | 0.01 | 54 | 1016.2 |
| 20260501153253 | 53 | 120 | 2.0 | 4.0 | 0.00 | 0.01 | 0.01 | 52 | 1016.4 |